Faribault, MN

11:42 PM CST on November 18, 2017 (GMT -0600)
Faribault Municipal

Weather History for KFBL - July, 2013

Change the Weather History Date:

Saturday, July 20, 2013

  Actual Average Record
Temperature  
Mean Temperature 71 °F -  
Max Temperature 80 °F 83 °F 95 °F (1977)
Min Temperature 62 °F 60 °F 44 °F (1970)
Cooling Degree Days 6    
Growing Degree Days 21 (Base 50)    
Moisture  
Dew Point 63 °F    
Average Humidity 77    
Maximum Humidity 100    
Minimum Humidity 54    
Precipitation  
Precipitation 0.00 in - - ()
Sea Level Pressure  
Sea Level Pressure 29.93 in    
Wind  
Wind Speed 2 mph (WNW)    
Max Wind Speed 8 mph    
Max Gust Speed -    
Visibility 10 miles    
Events      
Averages and records for this station are not official NWS values.
T = Trace of Precipitation, MM = Missing Value Source: NWS Daily Summary

Daily Weather History Graph

Daily Weather History Graph

Search for Another Location

Airport or City:

Trip Planner

Search our weather history database for the weather conditions in past years. The results will help you decide how hot, cold, wet, or windy it might be!

Date:

Astronomy

Jul. 20, 2013 Rise Set
Actual Time 5:48 AM CDT 8:50 PM CDT
Civil Twilight 5:13 AM CDT 9:25 PM CDT
Nautical Twilight 4:29 AM CDT 10:09 PM CDT
Astronomical Twilight 3:35 AM CDT 11:01 PM CDT
Moon 6:54 PM CDT (7/20) 3:28 AM CDT (7/20)
Length of Visible Light 16h 11m
Length of Day
15h 02m
Waxing Gibbous, 94% of the Moon is Illuminated
Jul 20
Waxing Gibbous
Jul 22
Full
Jul 29
Last Quarter
Aug 6
New
Aug 14
First Quarter

Hourly Weather History & Observations

Time (CDT) Temp. Heat Index Dew Point Humidity Pressure Visibility Wind Dir Wind Speed Gust Speed Precip Events Conditions
12:14 AM 66.2 °F - 64.4 °F 94% 29.91 in 10.0 mi Calm Calm - N/A   Clear
12:34 AM 66.2 °F - 62.6 °F 88% 29.92 in 10.0 mi Calm Calm - N/A   Clear
12:54 AM 66.2 °F - 62.6 °F 88% 29.91 in 10.0 mi SW 3.5 mph - N/A   Clear
1:14 AM 64.4 °F - 62.6 °F 94% 29.92 in 10.0 mi Calm Calm - N/A   Clear
1:34 AM 66.2 °F - 62.6 °F 88% 29.92 in 10.0 mi Calm Calm - N/A   Clear
1:54 AM 66.2 °F - 62.6 °F 88% 29.92 in 10.0 mi Calm Calm - N/A   Clear
2:14 AM 66.2 °F - 62.6 °F 88% 29.91 in 10.0 mi WSW 3.5 mph - N/A   Clear
2:34 AM 66.2 °F - 62.6 °F 88% 29.91 in 10.0 mi Calm Calm - N/A   Clear
2:54 AM 64.4 °F - 62.6 °F 94% 29.91 in 10.0 mi Calm Calm - N/A   Clear
3:14 AM 64.4 °F - 62.6 °F 94% 29.91 in 10.0 mi SSW 3.5 mph - N/A   Clear
3:34 AM 64.4 °F - 62.6 °F 94% 29.90 in 10.0 mi SSW 4.6 mph - N/A   Clear
3:54 AM 64.4 °F - 62.6 °F 94% 29.90 in 10.0 mi Calm Calm - N/A   Clear
4:14 AM 64.4 °F - 62.6 °F 94% 29.90 in 10.0 mi South 3.5 mph - N/A   Clear
4:34 AM 64.4 °F - 62.6 °F 94% 29.90 in 10.0 mi SW 4.6 mph - N/A   Clear
4:53 AM 64.4 °F - 62.6 °F 94% 29.91 in 10.0 mi Calm Calm - N/A   Clear
5:14 AM 64.4 °F - 62.6 °F 94% 29.90 in 10.0 mi SSW 3.5 mph - N/A   Clear
5:34 AM 64.4 °F - 62.6 °F 94% 29.91 in 10.0 mi Calm Calm - N/A   Clear
5:53 AM 62.6 °F - 62.6 °F 100% 29.92 in 10.0 mi Calm Calm - N/A   Clear
6:14 AM 62.6 °F - 62.6 °F 100% 29.92 in 10.0 mi Calm Calm - N/A   Clear
6:34 AM 64.4 °F - 62.6 °F 94% 29.93 in 10.0 mi Calm Calm - N/A   Clear
6:53 AM 64.4 °F - 64.4 °F 100% 29.93 in 10.0 mi Calm Calm - N/A   Clear
7:14 AM 66.2 °F - 64.4 °F 94% 29.94 in 10.0 mi SW 3.5 mph - N/A   Clear
7:34 AM 69.8 °F - 64.4 °F 83% 29.94 in 10.0 mi Calm Calm - N/A   Clear
7:54 AM 69.8 °F - 64.4 °F 83% 29.94 in 10.0 mi Calm Calm - N/A   Scattered Clouds
8:14 AM 69.8 °F - 62.6 °F 78% 29.94 in 10.0 mi Calm Calm - N/A   Clear
8:34 AM 69.8 °F - 62.6 °F 78% 29.95 in 10.0 mi NW 3.5 mph - N/A   Clear
8:54 AM 69.8 °F - 62.6 °F 78% 29.95 in 10.0 mi NW 3.5 mph - N/A   Clear
9:14 AM 69.8 °F - 62.6 °F 78% 29.96 in 10.0 mi Calm Calm - N/A   Clear
9:34 AM 69.8 °F - 62.6 °F 78% 29.96 in 10.0 mi Calm Calm - N/A   Clear
9:54 AM 69.8 °F - 62.6 °F 78% 29.96 in 10.0 mi Calm Calm - N/A   Clear
10:14 AM 71.6 °F - 62.6 °F 73% 29.95 in 10.0 mi Calm Calm - N/A   Clear
10:34 AM 71.6 °F - 62.6 °F 73% 29.95 in 10.0 mi Calm Calm - N/A   Clear
10:54 AM 71.6 °F - 62.6 °F 73% 29.95 in 10.0 mi Calm Calm - N/A   Clear
11:14 AM 71.6 °F - 62.6 °F 73% 29.95 in 10.0 mi Calm Calm - N/A   Clear
11:33 AM 75.2 °F - 62.6 °F 65% 29.96 in 10.0 mi West 3.5 mph - N/A   Clear
11:54 AM 75.2 °F - 64.4 °F 69% 29.96 in 10.0 mi SW 3.5 mph - N/A   Clear
12:14 PM 73.4 °F - 64.4 °F 73% 29.96 in 10.0 mi Calm Calm - N/A   Clear
12:34 PM 75.2 °F - 64.4 °F 69% 29.96 in 10.0 mi Calm Calm - N/A   Clear
12:54 PM 77.0 °F - 64.4 °F 65% 29.96 in 10.0 mi West 3.5 mph - N/A   Scattered Clouds
1:14 PM 78.8 °F - 64.4 °F 61% 29.96 in 10.0 mi WSW 8.1 mph - N/A   Scattered Clouds
1:34 PM 78.8 °F - 64.4 °F 61% 29.95 in 10.0 mi NW 3.5 mph - N/A   Scattered Clouds
1:54 PM 78.8 °F - 62.6 °F 57% 29.95 in 10.0 mi WNW 4.6 mph - N/A   Scattered Clouds
2:14 PM 80.6 °F 81.8 °F 62.6 °F 54% 29.94 in 10.0 mi NW 4.6 mph - N/A   Scattered Clouds
2:34 PM 78.8 °F - 62.6 °F 57% 29.93 in 10.0 mi WNW 3.5 mph - N/A   Scattered Clouds
2:54 PM 78.8 °F - 62.6 °F 57% 29.93 in 10.0 mi Calm Calm - N/A   Scattered Clouds
3:14 PM 78.8 °F - 62.6 °F 57% 29.92 in 10.0 mi North 3.5 mph - N/A   Scattered Clouds
3:34 PM 80.6 °F 81.8 °F 62.6 °F 54% 29.92 in 10.0 mi West 3.5 mph - N/A   Clear
3:54 PM 80.6 °F 81.8 °F 62.6 °F 54% 29.92 in 10.0 mi West 4.6 mph - N/A   Clear
4:14 PM 78.8 °F - 62.6 °F 57% 29.93 in 10.0 mi Calm Calm - N/A   Clear
4:34 PM 80.6 °F 81.8 °F 62.6 °F 54% 29.93 in 10.0 mi West 3.5 mph - N/A   Clear
4:54 PM 80.6 °F 81.8 °F 62.6 °F 54% 29.93 in 10.0 mi Calm Calm - N/A   Clear
5:14 PM 80.6 °F 82.3 °F 64.4 °F 58% 29.93 in 10.0 mi WSW 4.6 mph - N/A   Clear
5:34 PM 80.6 °F 82.3 °F 64.4 °F 58% 29.92 in 10.0 mi West 5.8 mph - N/A   Scattered Clouds
5:53 PM 80.6 °F 81.8 °F 62.6 °F 54% 29.92 in 10.0 mi West 3.5 mph - N/A   Scattered Clouds
6:14 PM 78.8 °F - 64.4 °F 61% 29.91 in 4.0 mi West 3.5 mph - N/A   Haze
6:34 PM 80.6 °F 82.3 °F 64.4 °F 58% 29.91 in 10.0 mi West 5.8 mph - N/A   Clear
6:54 PM 78.8 °F - 64.4 °F 61% 29.91 in 10.0 mi WNW 4.6 mph - N/A   Clear
7:14 PM 78.8 °F - 64.4 °F 61% 29.91 in 10.0 mi NW 5.8 mph - N/A   Clear
7:33 PM 78.8 °F - 64.4 °F 61% 29.91 in 10.0 mi NNW 4.6 mph - N/A   Clear
7:54 PM 75.2 °F - 64.4 °F 69% 29.91 in 10.0 mi Calm Calm - N/A   Clear
8:14 PM 75.2 °F - 64.4 °F 69% 29.92 in 10.0 mi Calm Calm - N/A   Clear
8:33 PM 73.4 °F - 66.2 °F 78% 29.92 in 10.0 mi Calm Calm - N/A   Clear
8:54 PM 71.6 °F - 66.2 °F 83% 29.92 in 10.0 mi Calm Calm - N/A   Clear
9:14 PM 71.6 °F - 64.4 °F 78% 29.93 in 10.0 mi Calm Calm - N/A   Clear
9:34 PM 71.6 °F - 64.4 °F 78% 29.93 in 10.0 mi NNE 4.6 mph - N/A   Clear
9:54 PM 69.8 °F - 64.4 °F 83% 29.94 in 10.0 mi North 4.6 mph - N/A   Clear
10:14 PM 69.8 °F - 62.6 °F 78% 29.95 in 10.0 mi North 4.6 mph - N/A   Clear
10:34 PM 68.0 °F - 62.6 °F 83% 29.95 in 10.0 mi NNE 4.6 mph - N/A   Clear
10:54 PM 66.2 °F - 62.6 °F 88% 29.96 in 10.0 mi North 3.5 mph - N/A   Clear
11:14 PM 66.2 °F - 62.6 °F 88% 29.96 in 10.0 mi NNE 3.5 mph - N/A   Clear
11:34 PM 66.2 °F - 62.6 °F 88% 29.96 in 10.0 mi North 3.5 mph - N/A   Scattered Clouds
11:54 PM 66.2 °F - 62.6 °F 88% 29.96 in 10.0 mi NNE 4.6 mph - N/A   Scattered Clouds